Kezdőlap
METAR-TAF:

METAR-TAF

Repülőterek :

Schenck Field

Clarinda, Iowa, Amerikai Egyesült Államok

földrajzi szélesség: 40-43N, földrajzi hosszúság: 095-02W, magasság: 303 m

Jelenlegi meteorológiai megfigyelések

A jelentés 15 perccel ezelõtt készült, 13:55 UTC
Északkeleti szél 4 kt
Hőmérséklet 1°C
Páratartalom 93%
Légköri nyomás 1028 hPa
Látótávolság: 16.1 km
Derült ég

METAR: KICL 041355Z AUTO 04004KT 10SM CLR 01/M00 A3037 RMK AO2

Idő: 08:10 (14:10 UTC)


TAF: hiányzik

Meteorológiai megfigyelések és előrejelzések több, mint 4000 repülőtéren (METAR és TAF jelentéseket).

A térképen piros és sárga pontok jelzik az elérhető meteorológiai állomásokat.

Mozgassa az egeret a pont fölött, hogy megjelenjen az állomás neve.

Azután kattintson az időjárási megfigyelések és előrejelzések megtekintéséhez.

A térkép megváltoztatása: kattintson a fekete keresztel jelölt zöld gombra ráközelítéshez, a vonallal jelölt zöld gombra távolításhoz, vagy a zöld nyilakra a szomszédos térképek eléréséhez.


METAR-TAF: